• In Netherlands
  • List of Countries
  • For 7 days
  • Water Temperature
  • Satellite Maps
  • Weather Map
  • Weather Widgets
  • user-avatar
    Login

    Hourly Weather A'ali

    Today, 23 June, Friday

    Time Temperature Precipitation Wind Pressure Humidity
    00:00 +39°C° 0 mm 12 mps 749 mmHg 37%
    01:00 +39°C° 0 mm 11 mps 749 mmHg 39%
    02:00 +38°C° 0 mm 11 mps 749 mmHg 40%
    03:00 +38°C° 0 mm 11 mps 749 mmHg 40%
    04:00 +38°C° 0 mm 11 mps 749 mmHg 41%
    05:00 +37°C° 0 mm 11 mps 749 mmHg 41%
    06:00 +37°C° 0 mm 11 mps 750 mmHg 42%
    07:00 +38°C° 0 mm 11 mps 750 mmHg 38%
    08:00 +39°C° 0 mm 11 mps 750 mmHg 34%
    09:00 +41°C° 0 mm 11 mps 750 mmHg 29%
    10:00 +41°C° 0 mm 11 mps 750 mmHg 27%
    11:00 +42°C° 0 mm 11 mps 750 mmHg 26%
    12:00 +42°C° 0 mm 12 mps 750 mmHg 24%
    13:00 +42°C° 0 mm 12 mps 750 mmHg 22%
    14:00 +42°C° 0 mm 12 mps 750 mmHg 21%
    15:00 +42°C° 0 mm 12 mps 749 mmHg 20%
    16:00 +42°C° 0 mm 11 mps 749 mmHg 21%
    17:00 +41°C° 0 mm 11 mps 749 mmHg 23%
    18:00 +40°C° 0 mm 10 mps 749 mmHg 24%
    19:00 +39°C° 0 mm 9 mps 749 mmHg 27%
    20:00 +39°C° 0 mm 8 mps 749 mmHg 30%
    21:00 +38°C° 0 mm 8 mps 749 mmHg 33%
    22:00 +38°C° 0 mm 8 mps 749 mmHg 34%
    23:00 +38°C° 0 mm 8 mps 749 mmHg 35%

    Tomorrow, 24 June, Saturday

    Time Temperature Precipitation Wind Pressure Humidity
    00:00 +38°C° 0 mm 8 mps 749 mmHg 36%
    01:00 +37°C° 0 mm 8 mps 749 mmHg 37%
    02:00 +37°C° 0 mm 8 mps 749 mmHg 38%
    03:00 +37°C° 0 mm 8 mps 748 mmHg 39%
    04:00 +37°C° 0 mm 9 mps 749 mmHg 40%
    05:00 +37°C° 0 mm 9 mps 749 mmHg 40%
    06:00 +37°C° 0 mm 9 mps 749 mmHg 41%
    07:00 +38°C° 0 mm 9 mps 749 mmHg 36%
    08:00 +39°C° 0 mm 9 mps 749 mmHg 32%
    09:00 +42°C° 0 mm 9 mps 749 mmHg 27%
    10:00 +42°C° 0 mm 9 mps 749 mmHg 25%
    11:00 +43°C° 0 mm 9 mps 749 mmHg 23%
    12:00 +44°C° 0 mm 8 mps 749 mmHg 21%
    13:00 +44°C° 0 mm 9 mps 749 mmHg 21%
    14:00 +43°C° 0 mm 9 mps 749 mmHg 21%
    15:00 +43°C° 0 mm 9 mps 748 mmHg 21%
    16:00 +41°C° 0 mm 8 mps 748 mmHg 23%
    17:00 +41°C° 0 mm 7 mps 748 mmHg 24%
    18:00 +40°C° 0 mm 6 mps 748 mmHg 25%
    19:00 +39°C° 0 mm 5 mps 748 mmHg 29%
    20:00 +37°C° 0 mm 4 mps 748 mmHg 33%
    21:00 +36°C° 0 mm 3 mps 749 mmHg 37%
    22:00 +35°C° 0 mm 3 mps 748 mmHg 38%
    23:00 +35°C° 0 mm 2 mps 748 mmHg 39%

    Day after tomorrow, 25 June, Sunday

    Time Temperature Precipitation Wind Pressure Humidity
    00:00 +34°C° 0 mm 2 mps 748 mmHg 40%
    01:00 +34°C° 0 mm 3 mps 748 mmHg 39%
    02:00 +35°C° 0 mm 3 mps 747 mmHg 38%
    03:00 +35°C° 0 mm 4 mps 747 mmHg 37%
    04:00 +35°C° 0 mm 5 mps 747 mmHg 39%
    05:00 +35°C° 0 mm 5 mps 748 mmHg 42%
    06:00 +35°C° 0 mm 6 mps 748 mmHg 44%
    07:00 +38°C° 0 mm 6 mps 748 mmHg 40%
    08:00 +40°C° 0 mm 7 mps 748 mmHg 36%
    09:00 +41°C° 0 mm 7 mps 749 mmHg 31%
    10:00 +43°C° 0 mm 8 mps 748 mmHg 28%
    11:00 +44°C° 0 mm 8 mps 748 mmHg 26%
    12:00 +44°C° 0 mm 8 mps 748 mmHg 23%
    13:00 +44°C° 0 mm 8 mps 748 mmHg 23%
    14:00 +44°C° 0 mm 8 mps 747 mmHg 24%
    15:00 +43°C° 0 mm 8 mps 747 mmHg 25%
    16:00 +43°C° 0 mm 7 mps 747 mmHg 27%
    17:00 +41°C° 0 mm 7 mps 747 mmHg 30%
    18:00 +40°C° 0 mm 6 mps 747 mmHg 32%
    19:00 +39°C° 0 mm 5 mps 747 mmHg 35%
    20:00 +37°C° 0 mm 4 mps 748 mmHg 37%
    21:00 +36°C° 0 mm 3 mps 748 mmHg 40%
    22:00 +36°C° 0 mm 3 mps 748 mmHg 39%
    23:00 +35°C° 0 mm 3 mps 748 mmHg 38%

    26 June, Monday

    Time Temperature Precipitation Wind Pressure Humidity
    00:00 +35°C° 0 mm 2 mps 748 mmHg 36%
    01:00 +35°C° 0 mm 3 mps 747 mmHg 34%
    02:00 +35°C° 0 mm 4 mps 747 mmHg 32%
    03:00 +36°C° 0 mm 4 mps 747 mmHg 30%
    04:00 +36°C° 0 mm 4 mps 747 mmHg 29%
    05:00 +36°C° 0 mm 5 mps 748 mmHg 28%
    06:00 +36°C° 0 mm 5 mps 748 mmHg 27%
    07:00 +39°C° 0 mm 6 mps 748 mmHg 25%
    08:00 +41°C° 0 mm 6 mps 749 mmHg 23%
    09:00 +44°C° 0 mm 6 mps 749 mmHg 21%
    10:00 +45°C° 0 mm 6 mps 749 mmHg 20%
    11:00 +45°C° 0 mm 6 mps 749 mmHg 20%
    12:00 +46°C° 0 mm 6 mps 748 mmHg 19%
    13:00 +46°C° 0 mm 6 mps 748 mmHg 19%
    14:00 +46°C° 0 mm 7 mps 748 mmHg 19%
    15:00 +46°C° 0 mm 7 mps 748 mmHg 20%
    16:00 +45°C° 0 mm 6 mps 748 mmHg 22%
    17:00 +44°C° 0 mm 6 mps 748 mmHg 24%
    18:00 +42°C° 0 mm 6 mps 748 mmHg 26%
    19:00 +41°C° 0 mm 6 mps 748 mmHg 27%
    20:00 +40°C° 0 mm 5 mps 748 mmHg 28%
    21:00 +40°C° 0 mm 5 mps 748 mmHg 30%
    22:00 +40°C° 0 mm 5 mps 748 mmHg 28%
    23:00 +40°C° 0 mm 6 mps 748 mmHg 27%

    27 June, Tuesday

    Time Temperature Precipitation Wind Pressure Humidity
    00:00 +40°C° 0 mm 6 mps 747 mmHg 25%
    01:00 +40°C° 0 mm 6 mps 747 mmHg 25%
    02:00 +39°C° 0 mm 6 mps 747 mmHg 24%
    03:00 +39°C° 0 mm 7 mps 746 mmHg 23%
    04:00 +39°C° 0 mm 7 mps 747 mmHg 23%
    05:00 +39°C° 0 mm 7 mps 747 mmHg 23%
    06:00 +39°C° 0 mm 7 mps 748 mmHg 23%
    07:00 +41°C° 0 mm 7 mps 748 mmHg 20%
    08:00 +44°C° 0 mm 7 mps 748 mmHg 17%
    09:00 +46°C° 0 mm 7 mps 748 mmHg 14%
    10:00 +47°C° 0 mm 7 mps 748 mmHg 14%
    11:00 +49°C° 0 mm 7 mps 748 mmHg 13%
    12:00 +49°C° 0 mm 7 mps 747 mmHg 13%
    13:00 +49°C° 0 mm 7 mps 747 mmHg 14%
    14:00 +49°C° 0 mm 7 mps 747 mmHg 15%
    15:00 +47°C° 0 mm 7 mps 746 mmHg 15%
    16:00 +46°C° 0 mm 6 mps 746 mmHg 18%
    17:00 +45°C° 0 mm 6 mps 746 mmHg 20%
    18:00 +43°C° 0 mm 5 mps 746 mmHg 22%
    19:00 +42°C° 0 mm 4 mps 747 mmHg 24%
    20:00 +41°C° 0 mm 4 mps 747 mmHg 26%
    21:00 +39°C° 0 mm 3 mps 747 mmHg 27%
    22:00 +39°C° 0 mm 3 mps 747 mmHg 26%
    23:00 +40°C° 0 mm 4 mps 746 mmHg 24%

    28 June, Wednesday

    Time Temperature Precipitation Wind Pressure Humidity
    00:00 +40°C° 0 mm 4 mps 746 mmHg 22%
    01:00 +40°C° 0 mm 4 mps 746 mmHg 23%
    02:00 +40°C° 0 mm 4 mps 746 mmHg 23%
    03:00 +38°C° 0 mm 4 mps 745 mmHg 23%
    04:00 +38°C° 0 mm 4 mps 746 mmHg 22%
    05:00 +38°C° 0 mm 3 mps 746 mmHg 22%
    06:00 +38°C° 0 mm 2 mps 746 mmHg 21%
    07:00 +40°C° 0 mm 2 mps 747 mmHg 18%
    08:00 +42°C° 0 mm 2 mps 747 mmHg 16%
    09:00 +43°C° 0 mm 2 mps 747 mmHg 13%
    10:00 +45°C° 0 mm 2 mps 747 mmHg 13%
    11:00 +45°C° 0 mm 3 mps 747 mmHg 13%
    12:00 +46°C° 0 mm 3 mps 746 mmHg 14%
    13:00 +46°C° 0 mm 3 mps 746 mmHg 14%
    14:00 +46°C° 0 mm 3 mps 745 mmHg 15%
    15:00 +46°C° 0 mm 3 mps 745 mmHg 16%
    16:00 +45°C° 0 mm 3 mps 745 mmHg 17%
    17:00 +44°C° 0 mm 3 mps 745 mmHg 18%
    18:00 +43°C° 0 mm 3 mps 745 mmHg 19%
    19:00 +41°C° 0 mm 2 mps 745 mmHg 22%
    20:00 +40°C° 0 mm 2 mps 745 mmHg 24%
    21:00 +39°C° 0 mm 1 mps 746 mmHg 26%
    22:00 +38°C° 0 mm 3 mps 745 mmHg 31%
    23:00 +37°C° 0 mm 4 mps 745 mmHg 36%
    Show more